San Jose, Costa Rica

7:12 AM CST on April 26, 2017 (GMT -0600)
Juan Santamaria International

Weather History for MROC - January, 2011

Change the Weather History Date:

Tuesday, January 18, 2011

  Actual Average Record
Temperature  
Mean Temperature 74 °F -  
Max Temperature 84 °F 81 °F 85 °F (2017)
Min Temperature 65 °F 64 °F 60 °F (2001)
Cooling Degree Days 10    
Growing Degree Days 24 (Base 50)    
Moisture  
Dew Point 64 °F    
Average Humidity 72    
Maximum Humidity 100    
Minimum Humidity 35    
Precipitation  
Precipitation 0.00 in 0.01 in - ()
Sea Level Pressure  
Sea Level Pressure 29.95 in    
Wind  
Wind Speed 6 mph ()    
Max Wind Speed 10 mph    
Max Gust Speed -    
Visibility 7.3 miles    
Events      
Averages and records for this station are not official NWS values.
T = Trace of Precipitation, MM = Missing Value Source: Averaged Metar Reports

Daily Weather History Graph

Daily Weather History Graph

Search for Another Location

Airport or City:

Trip Planner

Search our weather history database for the weather conditions in past years. The results will help you decide how hot, cold, wet, or windy it might be!

Date:

Astronomy

Jan. 18, 2011 Rise Set
Actual Time 5:58 AM CST 5:35 PM CST
Civil Twilight 5:36 AM CST 5:58 PM CST
Nautical Twilight 5:10 AM CST 6:24 PM CST
Astronomical Twilight 4:44 AM CST 6:49 PM CST
Moon 4:38 PM CST (1/18) 4:41 AM CST (1/18)
Length of Visible Light 12h 21m
Length of Day
11h 37m
Waxing Gibbous, 98% of the Moon is Illuminated
Jan 18
Waxing Gibbous
Jan 19
Full
Jan 26
Last Quarter
Feb 2
New
Feb 11
First Quarter

Hourly Weather History & Observations

Time (CST) Temp. Heat Index Dew Point Humidity Pressure Visibility Wind Dir Wind Speed Gust Speed Precip Events Conditions
12:00 AM 69.8 °F - 60.8 °F 73% 29.98 in - ESE 9.2 mph - N/A   Clear
1:00 AM 68.0 °F - 60.8 °F 78% 29.97 in - East 5.8 mph - N/A   Clear
2:00 AM 68.0 °F - 60.8 °F 78% 29.95 in - ENE 4.6 mph - N/A   Clear
3:00 AM 68 °F - 61 °F 71% 29.76 in 12 mi Calm Calm - -   Partly Cloudy
3:00 AM 68.0 °F - 60.8 °F 78% 29.95 in - East 2.3 mph - N/A   Clear
4:00 AM 68.0 °F - 62.6 °F 83% 29.96 in - East 8.1 mph - N/A   Clear
5:00 AM 68.0 °F - 62.6 °F 83% 29.96 in - East 9.2 mph - N/A   Clear
6:00 AM 68 °F - 63 °F 78% 29.82 in 12 mi Calm Calm - -   Scattered Clouds
6:00 AM 68.0 °F - 62.6 °F 83% 29.96 in 6.2 mi East 8.1 mph - N/A   Partly Cloudy
7:00 AM 69.8 °F - 60.8 °F 73% 30.01 in 6.2 mi East 8.1 mph - N/A   Unknown
8:00 AM 73.4 °F - 62.6 °F 69% 30.03 in 6.2 mi ESE 4.6 mph - N/A   Unknown
9:00 AM 79 °F - 63 °F 48% 29.86 in 12 mi SE 9.2 mph - -  
9:00 AM 78.8 °F - 62.6 °F 57% 30.03 in 6.2 mi SE 9.2 mph - N/A   Unknown
10:00 AM 80.6 °F 81.5 °F 60.8 °F 51% 30.02 in 6.2 mi SE 10.4 mph - N/A   Unknown
11:00 AM 84.2 °F 84.4 °F 60.8 °F 45% 30.00 in - SE 9.2 mph - N/A   Partly Cloudy
12:00 PM 84 °F - 61 °F 35% 29.81 in 12 mi SE 9.2 mph - -   Scattered Clouds
12:00 PM 84.2 °F 84.4 °F 60.8 °F 45% 29.97 in 6.2 mi SE 9.2 mph - N/A   Partly Cloudy
12:40 PM 84.2 °F 86.6 °F 66.2 °F 55% 29.95 in 6.2 mi SW 6.9 mph - N/A   Partly Cloudy
1:00 PM 84.2 °F 86.6 °F 66.2 °F 55% 29.95 in 6.2 mi WSW 9.2 mph - N/A   Partly Cloudy
2:00 PM 84.2 °F 87.3 °F 68.0 °F 58% 29.93 in 6.2 mi SW 10.4 mph - N/A   Partly Cloudy
3:00 PM 82.4 °F 86.3 °F 69.8 °F 66% 29.92 in 6.2 mi WSW 10.4 mph - N/A   Scattered Clouds
4:00 PM 78.8 °F - 69.8 °F 74% 29.92 in 6.2 mi WSW 10.4 mph - N/A   Mostly Cloudy
5:00 PM 75.2 °F - 71.6 °F 89% 29.94 in 6.2 mi West 8.1 mph - N/A   Scattered Clouds
6:00 PM 72 °F - 72 °F 98%  in 9 mi West 5.8 mph - -  
6:00 PM 71.6 °F - 71.6 °F 100% 29.96 in 6.2 mi West 5.8 mph - N/A   Scattered Clouds
7:00 PM 69.8 °F - 69.8 °F 100% 29.98 in 6.2 mi Calm Calm - N/A   Scattered Clouds
8:00 PM 69.8 °F - 69.8 °F 100% 30.00 in 6.2 mi Calm Calm - N/A   Scattered Clouds
9:00 PM 69.8 °F - 64.4 °F 83% 30.02 in 6.2 mi ESE 8.1 mph - N/A   Partly Cloudy
10:00 PM 69.8 °F - 62.6 °F 78% 30.02 in 6.2 mi ESE 4.6 mph - N/A   Partly Cloudy
11:00 PM 68.0 °F - 62.6 °F 83% 30.02 in 6.2 mi ESE 5.8 mph - N/A   Partly Cloudy